Home > Weather > Tehran > Past weeks

Flag for Iran Weather for the Past 2 Weeks in Tehran, Iran

Now
32 °F

Broken clouds.


Feels Like: 21 °F
Forecast: 30 / 42 °F
Wind: 16 mph from West

Location: Tehran-Mehrabad

Current Time: Feb 8, 2016 at 6:16:52 PM

Latest Report: Feb 8, 2016 at 5:30 PM


Visibility: N/A

Pressure: 29.98 "Hg (25.87 "Hg at 1179m altitude)

Humidity: 87%

Dew point: 28 °F

Location of TehranLocation

Historic Weather in Tehran — Graph

°F

Tehran Temperature Yesterday

Maximum temperature yesterday: 61 °F (at 12:00 PM)
Minimum temperature yesterday: 48 °F (at 2:00 AM)
Average temperature yesterday: 56 °F

High & Low Weather Summary for the Past Weeks

 TemperatureHumidityPressure
High63 °F (Feb 6, 3:00 PM)93% (Feb 8, 3:00 PM)30.36 "Hg (Feb 8, 3:00 PM)
Low25 °F (Jan 28, 3:30 AM)20% (Jan 29, 2:30 PM)29.80 "Hg (Jan 25, 2:27 PM)
Average43 °F41%30.10 "Hg
* Reported Jan 24 4:30 PM — Feb 8 5:00 PM, Tehran, Weather by CustomWeather, © 2016

Note: Actual official high and low records may vary slightly from our data, if they occured in-between our weather recording intervals... More about our weather records

Advertising

Tehran Weather History for the Previous 24 Hours

 ConditionsComfort  
Time TempWeatherWind HumidityBarometerVisibility
5:00 PM
Mon, Feb 8
32 °FBroken clouds.23 mph87%29.98 "HgN/A
4:30 PM32 °FBroken clouds.16 mph93%29.95 "HgN/A
4:00 PM36 °FBroken clouds.5 mph93%29.95 "Hg5 mi
3:30 PM32 °FIce fog.7 mph93%29.95 "Hg3 mi
3:00 PM32 °FHeavy snow. Dense fog.23 mph93%29.95 "Hg0 mi
2:30 PM34 °FHeavy snow. More clouds than sun.28 mph81%29.95 "Hg1 mi
2:00 PM37 °FMore clouds than sun.25 mph65%29.92 "HgN/A
1:30 PM37 °FMore clouds than sun.32 mph65%29.89 "Hg5 mi
1:00 PM37 °FBroken clouds.35 mph70%29.89 "Hg4 mi
12:30 PM41 °FBroken clouds.18 mph66%29.89 "Hg4 mi
12:00 PM41 °FBroken clouds.18 mph66%29.89 "HgN/A
11:30 AM45 °FBroken clouds.14 mph57%29.89 "HgN/A
11:00 AM45 °FPartly sunny.12 mph61%29.89 "Hg5 mi
10:30 AM45 °FPartly sunny.12 mph61%29.92 "Hg5 mi
10:00 AM45 °FPartly sunny.9 mph61%29.92 "HgN/A
9:30 AM43 °FScattered clouds.9 mph71%29.92 "HgN/A
9:00 AM43 °FScattered clouds.7 mph71%29.92 "HgN/A
8:30 AM41 °FScattered clouds.14 mph76%29.92 "HgN/A
8:00 AM41 °FScattered clouds.12 mph76%29.92 "HgN/A
7:30 AM39 °FScattered clouds.7 mph81%29.92 "HgN/A
7:00 AM39 °FPassing clouds.8 mph81%29.92 "HgN/A
6:30 AM45 °FPassing clouds.12 mph66%29.89 "HgN/A
6:00 AM46 °FPassing clouds.9 mph71%29.89 "HgN/A
5:30 AM43 °FPassing clouds.9 mph71%29.92 "HgN/A
5:00 AM43 °FPassing clouds.7 mph81%29.92 "HgN/A
4:30 AM45 °FPassing clouds.7 mph76%29.92 "HgN/A
4:00 AM48 °FPassing clouds.7 mph66%29.92 "HgN/A
3:30 AM48 °FPassing clouds.7 mph23%29.92 "HgN/A
3:00 AM46 °FLight rain. Passing clouds.No wind76%29.95 "Hg4 mi
2:30 AM46 °FLight rain. Passing clouds.No wind76%29.95 "Hg4 mi
2:00 AM50 °FSprinkles. Passing clouds.25 mph50%29.95 "Hg4 mi
1:30 AM52 °FPassing clouds.No wind44%29.89 "HgN/A
1:00 AM50 °FPassing clouds.No wind43%29.92 "HgN/A
12:30 AM50 °FOvercast.No wind43%29.92 "HgN/A
12:00 AM50 °FPassing clouds.No wind47%29.92 "HgN/A
11:30 PM
Sun, Feb 7
50 °FPassing clouds.No wind43%29.92 "HgN/A
11:00 PM52 °FPassing clouds.No wind41%29.92 "HgN/A
10:30 PM54 °FPassing clouds.No wind41%29.92 "HgN/A
10:00 PM54 °FPassing clouds.9 mph41%29.95 "HgN/A
9:30 PM55 °FPassing clouds.12 mph38%29.92 "HgN/A
9:00 PM55 °FPassing clouds.7 mph36%29.92 "HgN/A
8:30 PM55 °FPassing clouds.7 mph36%29.92 "HgN/A
8:00 PM55 °FPassing clouds.5 mph33%29.92 "HgN/A
7:30 PM57 °FPassing clouds.5 mph31%29.92 "HgN/A
7:00 PM55 °FPassing clouds.5 mph33%29.92 "HgN/A
6:30 PM57 °FPassing clouds.5 mph29%29.92 "HgN/A
6:00 PM57 °FScattered clouds.7 mph29%29.92 "HgN/A
Weather by CustomWeather, © 2016

See weather overviewHow to use our weather pages